Wind_Speed
17 11 15 18 19 19 17 19 20 22 20 19 20 22 22 22 25 22 27 29 23 26 25 30 29 32 33 27 33 35 36 35 27 31 24 21 19 19 18 20 20 21 21 20
14 15 16 16 16 15 16 19 20 19 21 20 22 24 21 20 23 27 26 27 28 23 29 23 21 23 26 24 32 34 35 31 31 31 22 20 16 13 16 17 19 20 21 21
17 17 12 8 13 15 17 18 18 22 20 21 20 26 24 23 30 36 31 27 29 24 28 27 25 23 27 23 34 35 34 30 32 24 21 21 19 17 15 15 14 17 18 22
14 17 17 16 18 14 17 17 19 17 16 14 16 16 21 20 18 13 20 30 28 28 33 29 26 29 29 30 29 33 32 31 31 26 24 24 20 22 19 16 15 16 17 17
11 11 12 14 16 16 18 17 15 13 16 19 20 14 16 21 20 18 10 16 20 28 23 22 26 27 30 32 31 33 34 31 32 28 26 24 18 15 12 11 15 16 17 18
18 19 15 13 13 15 9 13 16 15 14 13 22 17 17 15 7 12 13 18 18 6 17 19 24 26 29 33 33 35 35 30 28 30 25 18 12 16 14 17 19 20 20 18
17 19 19 17 11 12 10 11 8 11 10 13 14 10 17 11 3 4 9 20 21 26 29 25 19 30 29 38 37 36 33 30 29 27 25 19 19 19 14 17 18 18 17 18
16 16 16 18 14 10 14 13 8 9 7 11 6 7 1 13 16 27 29 25 22 25 27 27 31 21 16 37 36 36 32 30 30 26 26 20 19 17 17 16 14 16 13 15
11 17 8 3 9 10 10 12 14 18 17 14 11 15 7 22 18 17 19 20 22 25 25 27 28 21 7 32 34 32 31 31 28 28 24 21 19 14 15 14 13 12 13 13
11 14 19 15 13 14 15 7 5 3 4 8 8 6 6 12 13 11 12 14 15 19 20 22 25 28 7 20 25 26 28 33 27 24 22 19 21 17 17 16 13 11 9 10
13 8 13 22 10 15 13 13 12 5 8 3 4 3 1 4 3 8 8 11 9 12 16 18 20 21 17 5 17 23 19 28 30 21 23 22 18 16 14 14 14 14 10 9
8 4 13 20 20 21 20 15 16 8 7 6 9 3 7 7 5 3 8 11 9 10 14 15 15 17 13 12 8 11 15 23 31 16 21 19 18 17 14 13 12 13 12 10
1 5 8 15 16 16 8 11 20 18 3 9 5 4 7 8 5 8 9 12 10 11 15 14 14 16 13 11 8 14 16 21 25 18 16 17 15 16 12 12 12 13 10 9
7 9 11 14 10 14 14 17 17 12 6 5 7 9 11 10 6 9 12 12 11 12 16 14 14 15 13 11 12 11 17 21 25 23 24 22 20 18 17 17 14 13 10 9
11 16 17 21 24 16 16 22 10 17 15 8 9 9 14 11 7 15 12 11 12 14 17 17 15 14 13 12 12 15 18 24 21 23 22 22 21 20 19 18 17 16 15 13
10 12 17 20 20 19 25 20 6 9 10 7 19 3 14 18 16 15 12 11 12 15 15 16 15 12 14 13 12 12 14 17 22 22 21 20 19 17 16 17 17 16 15 14
11 4 8 14 14 14 12 18 10 11 19 10 3 8 12 12 14 16 13 12 12 13 14 19 16 14 13 13 11 12 14 16 20 23 21 20 20 20 21 21 19 19 18 15
15 11 7 7 9 7 12 12 13 6 17 12 10 14 11 12 13 15 13 11 12 11 14 16 15 17 15 13 12 11 12 15 20 22 21 19 19 18 17 18 19 18 18 19
16 10 5 4 5 15 17 7 8 6 9 16 16 16 13 11 9 12 10 9 11 12 13 14 15 15 18 19 15 14 17 17 18 19 19 18 18 17 15 16 17 17 15 15
15 10 3 3 2 4 7 17 5 3 6 14 15 12 12 5 3 3 6 8 9 9 10 14 15 15 15 16 16 17 18 17 20 20 21 19 16 18 20 18 16 16 14 15
8 4 9 9 6 3 17 18 8 1 5 14 13 11 14 5 6 9 8 10 11 13 12 14 16 18 16 14 14 17 19 19 14 17 19 21 16 17 14 17 15 15 15 13
7 6 5 7 6 5 29 13 7 6 15 12 13 12 15 15 13 13 13 13 13 15 15 16 19 19 16 15 14 17 19 14 16 17 16 15 18 19 21 16 18 17 17 17
2 4 3 6 3 8 17 15 12 12 13 13 13 12 11 14 14 12 12 14 16 15 14 15 18 18 19 17 17 17 15 15 16 18 19 18 16 17 16 16 19 19 18 18
10 17 4 3 8 12 16 15 15 15 15 13 12 12 11 14 13 13 12 13 14 15 15 14 16 17 20 18 16 16 13 13 13 14 14 13 13 15 16 16 17 17 18 16
7 8 9 4 5 7 16 15 12 13 13 14 13 13 12 14 14 13 13 14 13 14 15 14 14 13 14 15 17 15 10 10 15 18 21 22 21 20 18 19 19 18 17 14
8 5 4 3 10 5 9 10 11 14 14 12 12 14 13 12 13 12 13 11 11 12 12 13 14 14 14 13 13 14 15 12 11 15 17 16 16 17 19 19 19 19 16 14
Wind_Direction
208 223 232 232 231 246 269 280 286 288 296 304 286 276 274 276 266 261 260 264 255 262 259 238 233 226 222 210 183 190 205 218 195 207 208 217 224 221 220 214 219 223 223 220
239 221 249 255 263 262 267 275 276 280 284 271 273 273 271 262 262 253 247 246 247 246 263 260 233 221 217 190 188 193 208 213 194 210 201 214 221 224 226 220 218 224 226 226
246 248 224 263 267 269 259 263 276 281 282 282 290 279 275 271 248 251 249 246 243 246 239 240 238 234 191 186 186 192 207 199 198 199 195 201 197 201 196 213 216 219 222 219
266 263 260 270 266 251 268 274 275 290 284 279 293 300 288 284 295 249 225 231 234 237 240 228 232 231 192 189 188 189 200 196 198 190 202 209 209 198 215 214 213 212 209 209
253 272 245 254 262 274 275 284 288 283 283 286 279 272 279 284 272 248 214 224 214 216 239 234 230 225 198 189 192 191 201 197 199 193 206 205 208 202 201 197 214 212 208 209
258 260 265 247 276 277 265 281 269 270 262 269 262 264 268 270 9 333 42 39 21 230 227 240 239 241 199 187 186 187 199 195 198 196 209 205 187 192 184 196 205 201 212 209
254 233 237 237 241 253 245 267 260 267 253 247 9 333 253 110 317 37 40 41 26 14 3 355 330 227 223 183 183 186 192 193 197 199 194 197 189 193 186 203 206 207 208 205
267 275 249 190 217 243 221 232 242 273 285 310 306 270 342 133 64 45 38 30 19 6 353 345 339 318 235 173 177 182 186 191 194 194 194 191 202 200 188 202 217 213 220 221
310 271 49 159 216 231 243 242 240 265 279 279 257 228 30 359 39 38 29 21 2 359 349 345 341 350 189 173 176 184 185 192 190 190 192 187 192 185 180 191 198 204 209 207
322 307 281 218 224 228 242 255 247 322 266 267 266 285 51 25 7 29 38 30 7 344 346 352 9 23 15 153 165 171 190 197 184 190 191 186 184 179 189 195 190 187 191 189
327 310 282 291 198 219 214 230 245 243 251 278 297 309 99 15 320 342 24 38 20 351 357 358 13 43 63 113 180 192 183 178 183 180 187 180 179 178 182 191 195 206 205 207
358 303 286 271 267 206 248 235 229 228 250 284 283 294 231 224 218 33 38 46 30 21 12 13 21 45 73 90 139 185 190 182 183 172 191 185 171 174 180 191 195 203 194 213
335 278 293 270 261 251 223 240 233 216 266 233 273 289 224 247 252 104 61 54 38 30 32 21 31 43 58 78 127 169 170 201 189 183 180 168 176 179 176 177 176 186 188 194
333 261 258 276 294 312 298 296 294 298 212 255 257 334 286 229 226 110 78 65 48 35 45 34 32 39 51 70 99 151 176 174 178 180 173 172 168 170 179 174 181 178 173 162
216 262 271 270 288 290 276 279 289 303 282 228 260 254 28 10 89 85 84 68 51 44 45 42 31 31 41 66 81 114 131 161 171 180 175 171 169 169 171 173 176 179 171 165
344 271 265 269 277 281 306 249 221 302 298 351 254 174 61 18 96 83 77 66 60 55 51 48 41 36 40 48 69 96 114 141 152 171 176 181 190 189 191 185 170 171 176 181
275 275 310 264 279 299 283 247 239 218 214 239 7 57 64 61 50 36 69 68 61 56 54 58 48 49 49 48 61 77 108 122 129 137 145 158 166 172 177 183 188 187 187 186
250 255 276 290 303 266 266 193 206 200 49 37 73 66 76 99 89 58 56 74 66 58 65 70 63 56 54 54 64 81 95 108 120 123 125 131 143 143 146 160 168 159 168 175
234 225 268 276 284 286 187 112 143 150 46 23 20 29 77 112 111 58 51 80 87 78 71 69 74 77 69 57 55 72 86 92 98 99 111 110 122 119 122 125 131 133 133 137
202 210 203 293 278 273 13 341 25 103 85 27 19 15 357 163 255 69 54 72 84 84 77 76 73 73 72 86 82 74 71 78 84 90 95 87 95 100 93 96 99 108 112 109
159 172 217 249 250 241 346 330 296 31 39 38 36 28 29 71 66 102 86 73 77 75 75 79 77 66 60 60 73 82 89 84 83 82 87 94 92 93 97 96 97 95 95 97
180 216 212 219 238 82 355 17 58 349 50 45 58 71 86 92 91 89 85 76 72 71 66 71 76 70 63 58 60 65 68 67 89 97 98 107 108 106 105 106 101 94 98 101
67 352 4 36 45 34 47 60 48 51 57 50 72 80 95 99 94 91 88 83 79 73 71 73 76 70 64 60 64 64 67 72 76 86 93 106 113 107 107 115 110 100 100 100
355 18 36 200 37 51 42 53 51 59 67 68 75 90 101 100 95 91 93 89 87 78 75 75 76 77 74 67 64 66 69 76 90 103 107 115 114 115 112 105 102 110 111 108
355 356 335 91 84 100 47 47 56 63 69 79 86 91 94 98 92 90 88 89 88 89 91 95 92 94 101 104 98 86 66 77 75 75 77 82 85 89 102 107 104 102 101 107
8 7 6 22 359 81 46 49 60 68 66 72 79 79 78 89 96 101 93 96 99 94 93 90 89 87 86 109 108 104 104 93 91 96 89 73 71 79 85 87 91 90 82 82
Height
1442 1445 1441 1435 1432 1431 1430 1432 1430 1420 1414 1417 1413 1409 1407 1405 1399 1396 1395 1393 1392 1392 1393 1394 1395 1397 1401 1405 1407 1410 1416 1422 1430 1431 1435 1437 1439 1443 1447 1450 1453 1457 1460 1463
1438 1437 1429 1428 1425 1425 1426 1429 1426 1420 1416 1414 1407 1400 1395 1393 1388 1383 1384 1385 1386 1387 1387 1387 1389 1391 1395 1399 1403 1407 1413 1419 1426 1427 1432 1434 1437 1440 1444 1445 1448 1452 1456 1459
1429 1422 1418 1425 1426 1426 1423 1426 1425 1421 1413 1408 1408 1400 1388 1378 1373 1372 1373 1375 1379 1381 1384 1385 1386 1387 1390 1395 1400 1405 1410 1417 1422 1425 1428 1431 1436 1439 1442 1442 1445 1448 1451 1455
1424 1420 1418 1420 1422 1423 1426 1417 1414 1414 1414 1419 1404 1407 1388 1374 1365 1359 1362 1366 1369 1373 1377 1378 1381 1384 1385 1391 1398 1403 1409 1415 1418 1422 1424 1426 1429 1434 1436 1439 1442 1445 1449 1452
1425 1420 1421 1423 1422 1419 1419 1414 1412 1414 1417 1414 1409 1405 1383 1368 1359 1350 1352 1352 1359 1365 1369 1372 1377 1379 1381 1387 1393 1400 1405 1410 1414 1418 1420 1423 1426 1431 1433 1438 1441 1443 1446 1448
1418 1417 1415 1414 1415 1413 1415 1418 1414 1414 1414 1420 1397 1398 1385 1369 1363 1361 1351 1355 1362 1364 1368 1371 1374 1375 1378 1381 1388 1395 1400 1405 1410 1414 1417 1421 1424 1428 1431 1434 1438 1440 1443 1445
1407 1407 1408 1410 1416 1414 1417 1420 1424 1420 1410 1405 1402 1400 1369 1368 1369 1365 1360 1363 1369 1369 1368 1367 1370 1372 1372 1375 1381 1389 1396 1403 1407 1411 1417 1419 1423 1426 1429 1432 1434 1438 1440 1442
1412 1410 1395 1400 1410 1410 1411 1416 1421 1422 1413 1403 1397 1409 1372 1364 1368 1372 1372 1375 1378 1376 1372 1372 1368 1363 1363 1369 1376 1384 1392 1401 1405 1410 1415 1417 1419 1423 1427 1430 1432 1435 1437 1439
1409 1404 1396 1398 1401 1407 1406 1410 1405 1412 1403 1406 1388 1381 1378 1384 1378 1380 1382 1384 1384 1379 1380 1377 1370 1363 1363 1367 1374 1381 1389 1397 1403 1409 1413 1415 1418 1422 1425 1428 1430 1433 1435 1437
1413 1415 1397 1398 1402 1400 1402 1401 1417 1425 1420 1404 1375 1374 1395 1399 1397 1394 1393 1392 1391 1390 1387 1382 1376 1368 1367 1369 1374 1382 1388 1393 1402 1407 1411 1414 1417 1420 1424 1427 1430 1432 1434 1436
1427 1424 1413 1402 1408 1401 1398 1401 1402 1408 1408 1410 1410 1404 1412 1406 1401 1398 1396 1397 1398 1397 1391 1385 1381 1377 1374 1375 1378 1385 1387 1394 1401 1406 1408 1411 1415 1419 1422 1426 1429 1432 1433 1435
1434 1441 1426 1403 1388 1387 1388 1388 1393 1409 1404 1397 1395 1395 1401 1397 1398 1397 1398 1397 1400 1398 1393 1389 1386 1383 1380 1381 1384 1389 1390 1396 1400 1404 1404 1410 1414 1416 1421 1425 1429 1431 1432 1434
1437 1433 1426 1405 1393 1384 1392 1387 1398 1395 1401 1404 1414 1399 1392 1391 1392 1396 1398 1400 1402 1399 1393 1392 1389 1386 1386 1386 1387 1389 1391 1396 1400 1402 1405 1410 1414 1416 1420 1424 1427 1430 1432 1434
1445 1437 1437 1423 1408 1418 1412 1405 1395 1387 1400 1396 1394 1397 1389 1388 1387 1392 1402 1404 1405 1403 1396 1395 1394 1393 1391 1390 1390 1391 1393 1395 1397 1399 1402 1407 1411 1415 1417 1421 1425 1428 1430 1433
1438 1437 1430 1424 1409 1410 1412 1414 1401 1400 1400 1393 1388 1387 1388 1388 1388 1397 1405 1407 1408 1406 1402 1399 1399 1398 1396 1393 1393 1393 1394 1394 1398 1400 1403 1408 1411 1414 1417 1420 1422 1425 1428 1431
1439 1432 1425 1418 1412 1407 1403 1393 1398 1403 1402 1397 1394 1381 1398 1397 1394 1402 1408 1410 1411 1409 1407 1404 1404 1402 1400 1400 1397 1396 1396 1397 1398 1400 1404 1408 1411 1414 1417 1419 1422 1424 1427 1430
1438 1442 1429 1416 1408 1405 1397 1380 1383 1387 1392 1383 1384 1397 1400 1406 1411 1412 1413 1415 1416 1415 1413 1407 1409 1407 1405 1404 1403 1401 1400 1400 1398 1398 1403 1407 1409 1413 1416 1418 1421 1423 1425 1429
1429 1432 1431 1422 1415 1416 1380 1370 1371 1378 1389 1399 1395 1398 1405 1411 1417 1418 1418 1418 1419 1420 1416 1413 1414 1412 1410 1410 1409 1408 1405 1403 1401 1401 1403 1406 1408 1411 1414 1416 1418 1420 1422 1423
1418 1423 1429 1422 1416 1405 1372 1370 1372 1375 1410 1406 1401 1402 1409 1413 1416 1423 1424 1422 1421 1421 1420 1417 1415 1417 1415 1413 1416 1413 1410 1409 1409 1407 1407 1409 1409 1411 1415 1416 1417 1418 1421 1421
1407 1413 1429 1424 1427 1398 1397 1388 1380 1378 1405 1414 1413 1417 1417 1414 1414 1426 1427 1427 1425 1424 1423 1420 1419 1420 1418 1415 1419 1418 1417 1416 1414 1413 1411 1413 1417 1412 1418 1419 1420 1419 1422 1423
1408 1419 1423 1422 1422 1402 1409 1399 1382 1386 1423 1422 1424 1426 1424 1423 1429 1430 1430 1429 1428 1426 1426 1424 1422 1423 1424 1425 1419 1419 1418 1419 1421 1416 1415 1417 1424 1421 1419 1424 1428 1422 1423 1426
1409 1412 1408 1408 1401 1402 1415 1399 1406 1427 1426 1427 1429 1429 1429 1430 1432 1433 1433 1434 1433 1431 1431 1429 1426 1428 1429 1429 1427 1425 1423 1429 1420 1421 1421 1422 1425 1426 1422 1424 1424 1427 1425 1429
1417 1415 1413 1421 1424 1429 1430 1430 1431 1429 1429 1430 1431 1432 1433 1434 1435 1436 1436 1436 1435 1435 1435 1434 1432 1433 1434 1434 1432 1433 1433 1428 1428 1427 1427 1428 1432 1419 1428 1431 1428 1426 1430 1433
1421 1418 1421 1425 1433 1435 1435 1434 1433 1433 1433 1435 1435 1436 1437 1437 1438 1438 1439 1439 1439 1438 1438 1438 1436 1437 1438 1438 1437 1436 1438 1438 1435 1432 1431 1435 1432 1428 1427 1430 1427 1430 1434 1437
1436 1431 1432 1435 1437 1438 1439 1439 1439 1439 1439 1439 1440 1440 1441 1440 1440 1442 1443 1441 1442 1442 1441 1440 1439 1440 1440 1441 1441 1442 1443 1441 1438 1437 1435 1433 1433 1429 1432 1435 1435 1438 1440 1442
1445 1446 1443 1440 1445 1444 1446 1444 1442 1442 1443 1444 1444 1443 1443 1443 1443 1444 1445 1444 1444 1445 1444 1444 1442 1443 1443 1443 1444 1444 1444 1443 1443 1441 1440 1439 1439 1442 1443 1443 1442 1442 1444 1446